Alabaster, AL

9:41 PM CDT on September 20, 2017 (GMT -0500)
Shelby County

Weather History for KEET - July, 2013

Change the Weather History Date:

Monday, July 22, 2013

  Actual Average Record
Temperature  
Mean Temperature 78 °F 81 °F  
Max Temperature 84 °F 91 °F 98 °F (1972)
Min Temperature 71 °F 71 °F 58 °F (1963)
Cooling Degree Days 13 16  
Month to date cooling degree days 296 344  
Year to date cooling degree days 960 987  
Since 1 June cooling degree days 708 718  
Growing Degree Days 26 (Base 50)    
Moisture  
Dew Point 71 °F    
Average Humidity 87    
Maximum Humidity 100    
Minimum Humidity 74    
Precipitation  
Precipitation 0.59 in 0.14 in 1.49 in (2008)
Month to date precipitation 6.00 3.38  
Year to date precipitation 39.70 31.94  
Sea Level Pressure  
Sea Level Pressure 30.00 in    
Wind  
Wind Speed 5 mph (SW)    
Max Wind Speed 15 mph    
Max Gust Speed 29 mph    
Visibility 8 miles    
Events Fog , Rain , Thunderstorm    
T = Trace of Precipitation, MM = Missing Value Source: NWS Daily Summary

Daily Weather History Graph

Daily Weather History Graph

Search for Another Location

Airport or City:

Trip Planner

Search our weather history database for the weather conditions in past years. The results will help you decide how hot, cold, wet, or windy it might be!

Date:

Astronomy

Jul. 22, 2013 Rise Set
Actual Time 5:53 AM CDT 7:53 PM CDT
Civil Twilight 5:25 AM CDT 8:20 PM CDT
Nautical Twilight 4:52 AM CDT 8:54 PM CDT
Astronomical Twilight 4:16 AM CDT 9:30 PM CDT
Moon 7:44 PM CDT (7/22) 5:46 AM CDT (7/22)
Length of Visible Light 14h 55m
Length of Day
13h 59m
Full, 100% of the Moon is Illuminated
Jul 22
Full
Jul 22
Full
Jul 29
Last Quarter
Aug 6
New
Aug 14
First Quarter

Hourly Weather History & Observations

Time (CDT) Temp. Heat Index Dew Point Humidity Pressure Visibility Wind Dir Wind Speed Gust Speed Precip Events Conditions
12:24 AM 71.6 °F - 69.8 °F 94% 30.04 in 10.0 mi South 3.5 mph - N/A   Mostly Cloudy
12:46 AM 71.6 °F - 69.8 °F 94% 30.03 in 10.0 mi Calm Calm - N/A   Partly Cloudy
12:53 AM 71.1 °F - 69.1 °F 93% 30.01 in 10.0 mi Calm Calm - N/A   Partly Cloudy
1:13 AM 71.6 °F - 69.8 °F 94% 30.02 in 10.0 mi Calm Calm - N/A   Mostly Cloudy
1:42 AM 71.6 °F - 69.8 °F 94% 30.02 in 10.0 mi South 3.5 mph - N/A   Overcast
1:53 AM 72.0 °F - 70.0 °F 93% 29.99 in 10.0 mi South 3.5 mph - N/A   Overcast
2:01 AM 71.6 °F - 69.8 °F 94% 30.01 in 10.0 mi South 4.6 mph - N/A   Overcast
2:44 AM 73.4 °F - 71.6 °F 94% 30.00 in 8.0 mi SSW 4.6 mph - N/A   Overcast
2:53 AM 73.0 °F - 72.0 °F 96% 29.98 in 8.0 mi SSW 5.8 mph - N/A   Overcast
3:53 AM 73.9 °F - 72.0 °F 93% 29.98 in 10.0 mi SSW 4.6 mph - N/A   Overcast
4:53 AM 73.0 °F - 72.0 °F 96% 30.00 in 9.0 mi Variable 5.8 mph - N/A   Overcast
5:53 AM 73.9 °F - 72.0 °F 93% 30.00 in 7.0 mi Variable 4.6 mph - N/A   Overcast
6:53 AM 73.9 °F - 72.0 °F 93% 30.01 in 7.0 mi SSW 6.9 mph - N/A   Overcast
7:06 AM 73.4 °F - 71.6 °F 94% 30.03 in 8.0 mi SSW 5.8 mph - N/A   Overcast
7:21 AM 73.4 °F - 71.6 °F 94% 30.03 in 8.0 mi Variable 4.6 mph - N/A   Overcast
7:53 AM 73.9 °F - 72.0 °F 93% 30.02 in 9.0 mi Variable 5.8 mph - 0.01 in   Overcast
8:53 AM 75.0 °F - 71.1 °F 87% 30.02 in 10.0 mi SW 8.1 mph - N/A   Overcast
9:21 AM 78.8 °F - 71.6 °F 78% 30.04 in 10.0 mi Variable 5.8 mph - N/A   Mostly Cloudy
9:53 AM 79.0 °F - 71.1 °F 77% 30.02 in 10.0 mi SW 10.4 mph - N/A   Mostly Cloudy
11:53 AM 78.1 °F - 72.0 °F 81% 30.01 in 9.0 mi Variable 4.6 mph - 0.00 in Rain Light Rain
12:14 PM 80.6 °F 85.4 °F 73.4 °F 79% 30.02 in 10.0 mi Variable 5.8 mph - 0.00 in   Overcast
12:25 PM 80.6 °F 85.4 °F 73.4 °F 79% 30.01 in 10.0 mi South 8.1 mph - 0.00 in   Overcast
12:33 PM 80.6 °F 85.4 °F 73.4 °F 79% 30.01 in 10.0 mi SW 5.8 mph - 0.00 in   Mostly Cloudy
12:40 PM 82.4 °F 88.2 °F 73.4 °F 74% 30.01 in 10.0 mi WSW 8.1 mph 16.1 mph 0.00 in   Mostly Cloudy
12:53 PM 82.9 °F 89.4 °F 73.9 °F 74% 29.98 in 10.0 mi SW 8.1 mph 18.4 mph 0.00 in   Mostly Cloudy
1:40 PM 82.4 °F 88.2 °F 73.4 °F 74% 29.98 in 10.0 mi West 5.8 mph - 0.01 in   Mostly Cloudy
1:53 PM 82.9 °F 88.8 °F 73.0 °F 72% 29.97 in 10.0 mi WNW 9.2 mph - 0.01 in   Mostly Cloudy
2:02 PM 82.4 °F 88.2 °F 73.4 °F 74% 29.98 in 10.0 mi WNW 9.2 mph - N/A   Mostly Cloudy
2:30 PM 82.4 °F 88.2 °F 73.4 °F 74% 29.98 in 10.0 mi West 8.1 mph 19.6 mph N/A Thunderstorm Mostly Cloudy
2:46 PM 78.8 °F - 71.6 °F 78% 29.99 in 1.0 mi NNW 9.2 mph 28.8 mph 0.12 in Thunderstorm Haze
2:48 PM 75.2 °F - 71.6 °F 89% 29.99 in 0.5 mi NW 6.9 mph 28.8 mph 0.20 in Rain , Thunderstorm Heavy Rain
2:53 PM 73.9 °F - 71.1 °F 91% 29.97 in 0.5 mi NNW 8.1 mph 25.3 mph 0.23 in Fog , Rain , Thunderstorm Heavy Thunderstorms and Rain
2:59 PM 75.2 °F - 71.6 °F 89% 29.98 in 3.0 mi North 6.9 mph - 0.00 in Rain , Thunderstorm Light Thunderstorms and Rain
3:08 PM 75.2 °F - 73.4 °F 94% 29.98 in 10.0 mi NNW 8.1 mph - 0.00 in Thunderstorm Thunderstorm
3:30 PM 78.8 °F - 69.8 °F 74% 29.96 in 10.0 mi NW 8.1 mph - 0.00 in   Partly Cloudy
3:53 PM 78.1 °F - 68.0 °F 71% 29.94 in 10.0 mi Calm Calm - 0.00 in   Clear
4:53 PM 75.9 °F - 70.0 °F 82% 29.90 in 10.0 mi South 5.8 mph - N/A   Clear
5:53 PM 75.9 °F - 70.0 °F 82% 29.94 in 10.0 mi South 4.6 mph - N/A   Clear
6:48 PM 75.2 °F - 71.6 °F 89% 30.01 in 10.0 mi South 6.9 mph - N/A   Mostly Cloudy
6:53 PM 75.0 °F - 72.0 °F 90% 29.99 in 10.0 mi South 5.8 mph - N/A   Mostly Cloudy
7:01 PM 75.2 °F - 71.6 °F 89% 30.01 in 10.0 mi SSW 6.9 mph - N/A   Mostly Cloudy
7:18 PM 73.4 °F - 71.6 °F 94% 30.02 in 7.0 mi SSW 5.8 mph - 0.00 in Rain Light Rain
7:33 PM 73.4 °F - 71.6 °F 94% 30.01 in 1.8 mi SSW 6.9 mph - 0.05 in Rain Heavy Rain
7:43 PM 73.4 °F - 71.6 °F 94% 30.00 in 3.0 mi SSW 5.8 mph - 0.08 in Rain Light Rain
7:53 PM 73.0 °F - 71.1 °F 93% 30.00 in 7.0 mi WSW 5.8 mph - 0.09 in Rain Light Rain
7:58 PM 73.4 °F - 71.6 °F 94% 30.02 in 2.5 mi SW 3.5 mph - 0.04 in Rain Heavy Rain
8:13 PM 71.6 °F - 71.6 °F 100% 30.02 in 4.0 mi SW 8.1 mph - 0.08 in Rain Rain
8:22 PM 71.6 °F - 69.8 °F 94% 30.00 in 1.8 mi South 8.1 mph - 0.18 in Rain Heavy Rain
8:32 PM 71.6 °F - 69.8 °F 94% 30.00 in 3.0 mi SW 5.8 mph 16.1 mph 0.22 in Rain Light Rain
8:53 PM 71.1 °F - 69.1 °F 93% 29.99 in 10.0 mi Calm Calm - 0.25 in   Mostly Cloudy
9:53 PM 72.0 °F - 70.0 °F 93% 29.99 in 10.0 mi SSW 4.6 mph - N/A   Mostly Cloudy
10:10 PM 71.6 °F - 71.6 °F 100% 30.00 in 10.0 mi SW 5.8 mph - N/A   Overcast
10:53 PM 72.0 °F - 71.1 °F 97% 29.98 in 9.0 mi SW 5.8 mph - N/A   Overcast
11:53 PM 72.0 °F - 71.1 °F 97% 29.97 in 9.0 mi Calm Calm - N/A   Mostly Cloudy